Regional Weather Roundup
Issued by NWS

Home | Current Version | Previous Version | Graphics & Text | Print | Product List | Glossary On
Versions: 1 2 3 4 5 6 7 8 9 10 11 12 13 14 15 16 17 18 19 20 21 22 23 24 25 26 27 28 29 30 31 32 33 34 35 36 37 38 39 40 41 42 43 44 45 46 47 48 49 50
474
ASUS45 KBOI 081510
RWRID

IDAHO REGIONAL WEATHER ROUNDUP
NATIONAL WEATHER SERVICE BOISE ID
800 AM MST MON FEB 08 2016

NOTE: "FAIR" INDICATES FEW OR NO CLOUDS BELOW 12000 FEET
WITH NO SIGNIFICANT WEATHER AND/OR OBSTRUCTIONS TO VISIBILITY

IDZ012-014-081600-
SOUTHWEST IDAHO


CITY           SKY/WX    TMP DP  RH WIND       PRES   REMARKS
BOISE          CLEAR     32  27  81 SE9       30.68S WCI  24
CALDWELL       CLEAR     27  26  96 E5        30.71  WCI  22
MOUNTAIN HOME  CLEAR     28  28 100 E12       30.68S WCI  18
$$

IDZ016-017-081600-
SOUTHCENTRAL IDAHO


CITY           SKY/WX    TMP DP  RH WIND       PRES   REMARKS
BURLEY         PTCLDY    25  24  96 NE7       30.66R WCI  17
JEROME         FOG       26  25  96 NE14      30.67R VSB 1/2 WCI  14
TWIN FALLS     CLEAR     25  22  88 E6        30.67R FOG     WCI  18
$$

IDZ019>023-081600-
SOUTHEAST IDAHO


CITY           SKY/WX    TMP DP  RH WIND       PRES   REMARKS
IDAHO FALLS    FOG       22  20  92 N6        30.72R VSB 3/4 WCI  14
POCATELLO      CLOUDY    25  23  92 NE8       30.72R FOG     WCI  16
REXBURG        CLOUDY    22  21  96 CALM      30.71R FOG
$$

IDZ006-010-011-018-031-032-081600-
CENTRAL IDAHO MOUNTAINS


CITY           SKY/WX    TMP DP  RH WIND       PRES   REMARKS
MCCALL         CLEAR     11   7  84 CALM      30.63R
HAILEY         PTCLDY    19  16  86 NW7       30.66R WCI  10
STANLEY          N/A      3  -3  76 CALM      30.70S
SALMON         CLOUDY    23  18  80 CALM      30.73R
CHALLIS        CLEAR      7   3  84 CALM      30.71R
$$

IDZ002-004-006-007-026-081600-
NORTHERN IDAHO


CITY           SKY/WX    TMP DP  RH WIND       PRES   REMARKS
LEWISTON       CLEAR     34  30  85 CALM      30.63S
LOWELL           N/A     33  30  88 W5        30.72S WCI  29
COEUR D`ALENE  MOCLDY    34  28  80 NE10      30.60R WCI  26
MULLAN PASS    CLOUDY    32  25  75 S5        30.56S WCI  27
$$




USA.gov is the U.S. government's official web portal to all federal, state and local government web resources and services.